Visibility
4.8 10.7 15.0 15.0 15.0 15.0 15.0 15.0 0.0 15.0 8.2 0.0 0.0 0.0 0.0 15.0 15.0 15.0 15.0 15.0 15.0 15.0 10.1 11.5 14.8 13.8 14.2 15.0 15.0 15.0 13.3 11.8 15.0 14.5 15.0 15.0 14.1 7.3 15.0 0.0 0.0 0.0 0.1 11.2
15.0 15.0 15.0 15.0 8.5 14.3 15.0 6.3 3.3 15.0 12.8 0.0 0.1 0.0 0.0 15.0 15.0 15.0 2.2 0.1 15.0 15.0 0.2 0.1 0.1 0.1 14.2 15.0 15.0 3.4 6.6 0.0 0.3 15.0 15.0 15.0 14.1 2.5 4.1 1.3 0.0 0.1 0.7 11.1
14.4 13.1 15.0 15.0 10.5 12.5 7.1 0.2 0.0 7.9 0.1 1.1 0.0 0.0 0.0 0.0 9.5 13.7 14.9 0.3 11.1 15.0 0.1 0.6 0.1 0.0 6.1 15.0 15.0 15.0 13.2 0.0 0.1 0.6 15.0 15.0 15.0 15.0 15.0 0.1 0.1 8.2 3.5 10.2
14.6 15.0 15.0 15.0 14.6 10.0 6.5 0.1 0.0 15.0 0.3 0.1 0.0 0.0 0.0 0.1 0.0 8.1 15.0 1.9 8.4 0.0 0.0 14.1 7.4 15.0 15.0 14.7 15.0 15.0 10.8 0.5 12.5 15.0 15.0 15.0 15.0 15.0 15.0 15.0 15.0 11.6 15.0 15.0
15.0 15.0 15.0 15.0 13.7 8.4 1.2 0.0 0.0 14.7 15.0 15.0 6.8 0.0 0.2 7.4 15.0 0.0 0.0 0.0 15.0 15.0 0.0 0.1 0.1 9.6 12.9 15.0 15.0 15.0 15.0 0.5 14.0 3.6 15.0 15.0 15.0 15.0 15.0 15.0 15.0 15.0 15.0 14.4
10.1 15.0 15.0 15.0 15.0 15.0 15.0 15.0 15.0 1.8 0.2 13.2 0.2 0.6 1.4 0.0 0.0 2.0 8.6 14.9 0.1 0.0 0.0 0.2 5.6 15.0 15.0 15.0 15.0 14.6 15.0 6.3 7.5 5.9 15.0 15.0 4.1 15.0 15.0 15.0 15.0 15.0 15.0 15.0
11.9 14.6 15.0 15.0 15.0 14.8 15.0 15.0 15.0 1.3 5.4 15.0 15.0 15.0 0.1 0.4 5.9 0.0 1.0 0.1 0.1 13.0 15.0 15.0 15.0 11.8 5.2 15.0 15.0 14.2 15.0 5.6 7.1 1.7 15.0 0.4 15.0 15.0 15.0 15.0 15.0 15.0 15.0 15.0
10.7 14.5 14.1 15.0 15.0 15.0 15.0 15.0 1.1 0.0 0.1 13.5 10.1 15.0 2.9 2.0 0.0 0.0 0.4 2.2 0.2 15.0 15.0 2.0 2.8 3.0 10.5 13.3 4.5 14.0 15.0 11.7 15.0 3.8 15.0 15.0 15.0 15.0 15.0 15.0 15.0 15.0 15.0 15.0
10.8 14.6 9.0 15.0 15.0 14.9 15.0 15.0 13.5 0.0 0.0 0.2 14.4 0.1 0.5 1.2 15.0 0.1 0.0 2.9 9.7 14.9 0.1 13.7 10.5 9.7 10.3 14.9 15.0 15.0 15.0 15.0 15.0 15.0 0.7 15.0 15.0 15.0 15.0 14.5 15.0 15.0 15.0 15.0
12.2 12.7 11.3 13.1 15.0 15.0 14.8 15.0 15.0 8.3 0.0 10.6 12.6 4.6 5.8 5.5 11.5 2.9 12.5 15.0 15.0 15.0 15.0 6.1 0.1 14.0 15.0 15.0 15.0 15.0 13.8 13.8 0.4 0.5 0.1 13.0 15.0 15.0 15.0 8.1 14.7 15.0 15.0 15.0
15.0 13.8 14.9 13.9 15.0 15.0 14.9 15.0 15.0 14.7 1.4 15.0 15.0 15.0 15.0 15.0 15.0 15.0 15.0 15.0 15.0 10.6 15.0 15.0 11.9 2.5 2.4 7.0 15.0 15.0 15.0 12.3 5.7 0.6 0.1 0.1 15.0 15.0 9.6 10.1 15.0 13.1 15.0 15.0
15.0 15.0 10.6 14.0 15.0 15.0 8.3 15.0 15.0 15.0 15.0 15.0 12.4 15.0 15.0 15.0 15.0 15.0 15.0 15.0 15.0 15.0 7.3 13.8 15.0 15.0 15.0 9.3 15.0 15.0 4.7 13.7 14.3 14.9 13.8 14.4 15.0 14.6 14.6 15.0 15.0 15.0 15.0 15.0
14.8 13.9 15.0 10.3 9.2 15.0 15.0 15.0 15.0 15.0 14.6 15.0 15.0 15.0 15.0 15.0 15.0 15.0 15.0 15.0 15.0 15.0 15.0 15.0 15.0 8.4 15.0 15.0 15.0 15.0 15.0 15.0 12.9 0.4 15.0 15.0 15.0 15.0 15.0 15.0 15.0 15.0 15.0 15.0
15.0 13.8 15.0 12.6 13.3 15.0 6.1 10.2 15.0 9.4 6.5 9.8 15.0 15.0 15.0 15.0 15.0 15.0 15.0 15.0 15.0 15.0 15.0 15.0 15.0 15.0 15.0 15.0 15.0 15.0 15.0 15.0 15.0 15.0 15.0 12.5 2.0 6.4 10.7 15.0 15.0 15.0 15.0 15.0
15.0 15.0 7.5 12.2 10.9 12.4 5.1 15.0 15.0 15.0 0.8 0.1 15.0 15.0 15.0 15.0 15.0 15.0 15.0 15.0 15.0 15.0 15.0 15.0 15.0 15.0 15.0 15.0 15.0 15.0 15.0 15.0 15.0 15.0 12.7 0.1 0.3 5.9 15.0 15.0 15.0 15.0 15.0 15.0
8.0 15.0 6.8 15.0 9.8 9.7 0.1 0.0 6.4 15.0 9.1 0.0 12.2 15.0 15.0 15.0 15.0 15.0 15.0 15.0 15.0 15.0 15.0 15.0 15.0 15.0 15.0 9.8 15.0 15.0 15.0 15.0 15.0 15.0 15.0 15.0 5.6 6.6 15.0 15.0 15.0 15.0 15.0 15.0
12.4 13.7 11.4 14.2 11.2 15.0 5.7 1.6 9.2 15.0 9.8 0.1 13.7 15.0 15.0 15.0 15.0 15.0 15.0 15.0 15.0 14.8 15.0 15.0 15.0 15.0 9.0 11.5 15.0 15.0 15.0 15.0 15.0 15.0 15.0 15.0 15.0 15.0 15.0 15.0 15.0 15.0 15.0 15.0
13.6 14.8 7.1 12.3 15.0 7.6 6.5 15.0 15.0 15.0 15.0 14.4 15.0 15.0 15.0 15.0 15.0 15.0 15.0 15.0 15.0 15.0 15.0 15.0 15.0 15.0 15.0 15.0 15.0 15.0 15.0 15.0 15.0 15.0 15.0 15.0 15.0 15.0 15.0 15.0 15.0 15.0 15.0 15.0
8.1 11.0 14.7 3.7 0.0 0.0 0.5 14.7 14.8 8.9 8.2 13.5 15.0 15.0 15.0 15.0 15.0 15.0 14.9 14.0 15.0 15.0 15.0 15.0 15.0 15.0 15.0 15.0 15.0 15.0 15.0 15.0 15.0 15.0 15.0 15.0 15.0 15.0 15.0 15.0 15.0 15.0 15.0 15.0
15.0 15.0 0.1 0.0 0.0 15.0 15.0 0.2 0.1 15.0 15.0 15.0 12.1 15.0 15.0 15.0 15.0 15.0 14.4 15.0 15.0 15.0 15.0 15.0 15.0 15.0 15.0 15.0 15.0 15.0 15.0 15.0 15.0 15.0 15.0 15.0 15.0 15.0 15.0 15.0 15.0 15.0 15.0 14.6
15.0 0.1 0.0 1.5 15.0 0.2 0.7 6.8 10.5 14.9 14.9 15.0 15.0 15.0 15.0 15.0 15.0 15.0 15.0 15.0 5.0 0.3 15.0 10.9 12.1 15.0 15.0 15.0 15.0 15.0 15.0 15.0 15.0 15.0 15.0 15.0 15.0 15.0 15.0 15.0 15.0 15.0 15.0 4.8
15.0 15.0 15.0 15.0 0.4 7.2 11.2 12.9 15.0 15.0 15.0 15.0 15.0 15.0 15.0 12.3 13.6 15.0 15.0 15.0 15.0 15.0 13.9 0.7 2.6 15.0 13.3 10.4 15.0 15.0 15.0 15.0 15.0 15.0 15.0 15.0 15.0 15.0 15.0 15.0 15.0 6.5 0.8 14.0
15.0 15.0 15.0 15.0 15.0 2.9 15.0 15.0 15.0 15.0 15.0 15.0 15.0 10.1 15.0 15.0 15.0 15.0 15.0 7.0 8.6 15.0 7.4 2.1 0.9 10.1 15.0 15.0 15.0 15.0 15.0 15.0 15.0 15.0 15.0 15.0 15.0 13.6 15.0 2.2 11.8 12.9 15.0 4.2
15.0 15.0 14.6 15.0 15.0 15.0 15.0 15.0 15.0 15.0 15.0 15.0 15.0 0.6 0.1 1.4 0.1 0.7 0.1 4.2 12.5 0.1 2.4 13.4 15.0 15.0 11.2 15.0 8.2 15.0 15.0 15.0 15.0 15.0 0.4 1.2 3.3 0.5 15.0 15.0 15.0 15.0 15.0 7.7
15.0 15.0 15.0 15.0 15.0 15.0 15.0 15.0 15.0 15.0 15.0 14.2 2.0 0.4 0.5 0.1 0.1 0.3 1.2 0.7 1.1 9.1 3.7 0.1 13.1 15.0 11.7 13.0 10.7 15.0 15.0 14.9 14.1 14.4 0.1 13.0 15.0 15.0 15.0 15.0 15.0 15.0 15.0 7.6
15.0 15.0 15.0 15.0 15.0 15.0 15.0 15.0 15.0 15.0 0.0 0.0 0.0 0.1 0.1 0.1 0.2 0.1 1.0 4.6 9.9 5.9 15.0 15.0 15.0 15.0 15.0 10.7 0.8 15.0 15.0 15.0 15.0 5.4 0.4 2.7 5.3 15.0 15.0 15.0 10.1 15.0 15.0 15.0
15.0 15.0 15.0 15.0 15.0 15.0 15.0 15.0 15.0 6.9 0.0 0.1 0.1 0.1 0.1 4.6 0.1 1.7 15.0 15.0 0.1 13.5 15.0 15.0 15.0 15.0 14.0 0.5 15.0 15.0 15.0 15.0 15.0 15.0 15.0 14.1 14.8 15.0 15.0 15.0 4.4 0.1 0.2 15.0